TITAN 3C TRANSTAGE DEB, 43512

Orbit data source: Space-Track

TITAN 3C TRANSTAGE DEB, 43512 is space debris in GEO originally from a launch on Sun, 09 Feb 1969 UTC launched from the Air Force Eastern Test Range (AFETR). Debris objects in space refer to the collection of defunct objects orbiting the Earth. Examples of debris include non-operational satellites, rocket bodies, and fragments generated from explosions, collisions, or faulty payload assembly.

Loading next visibility...
Identifier
43512, 1969-013Q
Orbit
GEO
Last TLE update
3 days ago
Origin
Manufacturer
Martin Marietta
Mission
Spacecraft
Bus & Motor
Unknown
Mass
Unknown
Launch date (UTC)
1969-02-09 (56 years ago)
Launch vehicle
Unknown
Launch site
Air Force Eastern Test Range (AFETR)
Object type
Payload
Rocket body
Debris
Shape & HBR
Unknown
Radar Cross Section
RCS unknown

Expand to show TLE details & history

TLE from 3 days ago
0 TITAN 3C TRANSTAGE DEB
1 43512U 69013Q   25179.35923661 -.00000111  00000-0  00000-0 0  9997
2 43512   0.8656 172.5489 0071713  36.7166 150.3099  0.95025151 14028
Epoch: 2025-06-28T08:37Z
TLE epoch observation values (Epoch: 2025-06-28T08:37:18.043Z)
Latitude
-0.1209°
Longitude
-46.02501°
Altitude
37,595.531 km
Speed
3.001 km/s
True Right ascension
23h 59m 59s
True Declination
0° 07' 15"
Sunlit
Object was in daylight at epoch
Visualization orbit readout
Latitude
0.54398°
Longitude
-94.04441°
Altitude
37,389.906 km
Speed
3.016 km/s
Apparent Right ascension
20h 49m 11s
Apparent Declination
-5° 22' 21"
Sunlit
Object is in daylight
Visualization observer readout
Local Sidereal Time
20:37:49
Azimuth
176.024° S
Elevation
44.636°
Doppler factor
1
Orbital elements
Apogee altitude
37,639.131 km
Perigee altitude
37,012.304 km
Semi-major axis
43,703.854 km
Eccentricity
0.00717
Inclination
0.8656°
RAAN
172.5489°
Arg. of periapsis
36.7166°
True anomaly
Unknown
Mean anomaly
150.3099°
Eccentric anomaly
Unknown
Mean motion
0.23755 °/min
Orbital period
1,515.44 mins
BSTAR
0
Loading historical data...
43512 neighbors
Loading maneuver chart data...
Loading SW <> Apogee altitude chart data...

TITAN 3C TRANSTAGE DEB Visibility forecast

Observer location: undefined°, undefined°

Span
Click to sort rows by Start time (UTC) header in descending order
Start Az.
Max El. time (UTC)
Max El. Az.
Max El.
End time (UTC)
End Az.
1440 mins2025-07-01 08:59:36.893Z176.025° S2025-07-01 09:00:36.893Z176.047° S35.084°2025-07-02 08:59:36.893Z204.932° SW
|